Weather History for 41216 - August, 2014

Change the Weather History Date:

Sunday, August 3, 2014

  Actual Average Record
Temperature  
Mean Temperature 95 °F -  
Max Temperature 104 °F 105 °F - ()
Min Temperature 86 °F 84 °F - ()
Cooling Degree Days 30    
Growing Degree Days 45 (Base 50)    
Moisture  
Dew Point 79 °F    
Average Humidity 59    
Maximum Humidity 79    
Minimum Humidity 29    
Precipitation  
Precipitation 0.00 in 0.00 in - ()
Sea Level Pressure  
Sea Level Pressure 29.41 in    
Wind  
Wind Speed 5 mph ()    
Max Wind Speed 13 mph    
Max Gust Speed -    
Visibility 5.1 miles    
Events      
T = Trace of Precipitation, MM = Missing Value Source: Averaged Metar Reports

Daily Weather History Graph

Daily Weather History Graph

Search for Another Location

Airport or City:

Trip Planner

Search our weather history database for the weather conditions in past years. The results will help you decide how hot, cold, wet, or windy it might be!

Date:

Astronomy

Aug. 03, 2014 Rise Set
Actual Time 5:51 AM GST 7:04 PM GST
Civil Twilight 5:27 AM GST 7:29 PM GST
Nautical Twilight 4:58 AM GST 7:58 PM GST
Astronomical Twilight 4:28 AM GST 8:27 PM GST
Moon 12:00 PM GST (8/3) 11:36 PM GST (8/3)
Length of Visible Light 14h 02m
Length of Day
13h 13m
Waxing Crescent, 43% of the Moon is Illuminated
Aug 3
Waxing Crescent
Aug 4
First Quarter
Aug 10
Full
Aug 17
Last Quarter
Aug 25
New

Hourly Weather History & Observations

Time (GST) Temp. Heat Index Dew Point Humidity Pressure Visibility Wind Dir Wind Speed Gust Speed Precip Events Conditions
12:00 AM 93.2 °F 110.2 °F 78.8 °F 63% 29.44 in - North 4.6 mph - N/A   Clear
1:00 AM 91 °F - 81 °F 66% 29.44 in 6 mi 1.2 mph - -  
1:00 AM 91.4 °F 111.0 °F 80.6 °F 71% 29.44 in - Variable 1.2 mph - N/A   Clear
2:00 AM 91.4 °F 111.0 °F 80.6 °F 71% 29.42 in - Variable 2.3 mph - N/A   Clear
3:00 AM 89.6 °F 108.2 °F 80.6 °F 75% 29.42 in - ESE 5.8 mph - N/A   Clear
4:00 AM 90 °F - 78 °F 61% 29.41 in 6 mi SSE 3.5 mph - -  
4:00 AM 89.6 °F 104.7 °F 78.8 °F 70% 29.39 in - SSE 3.5 mph - N/A   Clear
5:00 AM 87.8 °F 102.5 °F 78.8 °F 75% 29.39 in 5.0 mi SSW 5.8 mph - N/A   Unknown
6:00 AM 87.8 °F 104.9 °F 80.6 °F 79% 29.42 in 5.0 mi Variable 2.3 mph - N/A   Unknown
7:00 AM 88 °F - 81 °F 74% 29.44 in 4 mi 2.3 mph - -   Haze
7:00 AM 87.8 °F 104.9 °F 80.6 °F 79% 29.44 in 4.3 mi Variable 2.3 mph - N/A   Unknown
8:00 AM 89.6 °F 108.2 °F 80.6 °F 75% 29.42 in 4.3 mi SSW 5.8 mph - N/A   Unknown
9:00 AM 93.2 °F 110.2 °F 78.8 °F 63% 29.44 in 5.0 mi South 3.5 mph - N/A   Unknown
10:00 AM 99 °F - 70 °F 30% 29.45 in 5 mi SSW 3.5 mph - -   Haze
10:00 AM 98.6 °F 105.5 °F 69.8 °F 39% 29.44 in 5.0 mi SSW 3.5 mph - N/A   Unknown
11:00 AM 104.0 °F 108.9 °F 66.2 °F 29% 29.44 in 5.0 mi NW 3.5 mph - N/A   Unknown
12:00 PM 102.2 °F 116.3 °F 75.2 °F 42% 29.42 in 5.0 mi NNW 8.1 mph - N/A   Unknown
1:00 PM 101 °F - 76 °F 36% 29.42 in 5 mi NNW 11.5 mph - -   Widespread Dust
1:00 PM 102.2 °F 119.3 °F 77.0 °F 45% 29.42 in 5.0 mi NNW 11.5 mph - N/A   Unknown
2:00 PM 100.4 °F 116.5 °F 77.0 °F 47% 29.39 in 5.0 mi NW 11.5 mph - N/A   Unknown
3:00 PM 98.6 °F 109.2 °F 73.4 °F 44% 29.39 in 5.0 mi NNW 12.7 mph - N/A   Unknown
4:00 PM 99 °F - 76 °F 39% 29.38 in 5 mi NNW 11.5 mph - -   Widespread Dust
4:00 PM 98.6 °F 114.4 °F 77.0 °F 50% 29.36 in 5.0 mi NNW 11.5 mph - N/A   Unknown
5:00 PM 98.6 °F 120.3 °F 80.6 °F 56% 29.36 in 5.0 mi NNW 10.4 mph - N/A   Unknown
6:00 PM 96.8 °F 114.8 °F 78.8 °F 56% 29.36 in 5.0 mi NNW 8.1 mph - N/A   Unknown
7:00 PM 96 °F - 80 °F 51% 29.38 in 5 mi NNW 5.8 mph - -   Haze
7:00 PM 96.8 °F 118.6 °F 80.6 °F 60% 29.36 in 5.0 mi NNW 5.8 mph - N/A   Unknown
8:00 PM 95.0 °F 115.8 °F 80.6 °F 63% 29.39 in 5.0 mi NNW 4.6 mph - N/A   Unknown
9:00 PM 95.0 °F 119.6 °F 82.4 °F 67% 29.39 in 5.6 mi West 5.8 mph - N/A   Unknown
10:00 PM 94 °F - 83 °F 65% 29.40 in 6 mi West 5.8 mph - -   Haze
10:00 PM 93.2 °F 120.9 °F 84.2 °F 75% 29.39 in 5.6 mi West 5.8 mph - N/A   Unknown
11:00 PM 93.2 °F 124.9 °F 86.0 °F 79% 29.39 in 5.6 mi West 8.1 mph - N/A   Unknown